Weather History for KDAL - February, 2013

Change the Weather History Date:

Friday, February 8, 2013

  Actual Average Record
Temperature  
Mean Temperature 54 °F -  
Max Temperature 64 °F 56 °F 73 °F (1999)
Min Temperature 45 °F 39 °F 32 °F (2014)
Degree Days  
Heating Degree Days 10    
Growing Degree Days 4 (Base 50)    
Moisture  
Dew Point 31 °F    
Average Humidity 45    
Maximum Humidity 69    
Minimum Humidity 19    
Precipitation  
Precipitation 0.00 in - - ()
Sea Level Pressure  
Sea Level Pressure 30.17 in    
Wind  
Wind Speed 11 mph (NNE)    
Max Wind Speed 20 mph    
Max Gust Speed 26 mph    
Visibility 10 miles    
Events      
Averages and records for this station are not official NWS values.
T = Trace of Precipitation, MM = Missing Value Source: NWS Daily Summary

Daily Weather History Graph

Daily Weather History Graph

Search for Another Location

Airport or City:

Trip Planner

Search our weather history database for the weather conditions in past years. The results will help you decide how hot, cold, wet, or windy it might be!

Date:

Astronomy

Feb. 08, 2013 Rise Set
Actual Time 7:16 AM CST 6:06 PM CST
Civil Twilight 6:51 AM CST 6:32 PM CST
Nautical Twilight 6:22 AM CST 7:01 PM CST
Astronomical Twilight 5:53 AM CST 7:30 PM CST
Moon 5:43 AM CST (2/8) 4:43 PM CST (2/8)
Length of Visible Light 11h 41m
Length of Day
10h 49m
Waning Crescent, 3% of the Moon is Illuminated
Feb 8
Waning Crescent
Feb 10
New
Feb 17
First Quarter
Feb 25
Full
Mar 4
Last Quarter

Hourly Weather History & Observations

Time (CST) Temp. Windchill Dew Point Humidity Pressure Visibility Wind Dir Wind Speed Gust Speed Precip Events Conditions
12:04 AM 55.4 °F - 42.8 °F 63% 30.11 in 10.0 mi North 19.6 mph 26.5 mph N/A   Partly Cloudy
12:53 AM 53.1 °F - 42.1 °F 66% 30.12 in 10.0 mi NNW 15.0 mph - N/A   Partly Cloudy
1:53 AM 52.0 °F - 42.1 °F 69% 30.13 in 10.0 mi NNW 10.4 mph - N/A   Clear
2:53 AM 51.1 °F - 39.9 °F 66% 30.13 in 10.0 mi North 11.5 mph - N/A   Clear
3:53 AM 50.0 °F - 37.0 °F 61% 30.15 in 10.0 mi North 11.5 mph - N/A   Clear
4:53 AM 48.0 °F - 36.0 °F 63% 30.16 in 10.0 mi North 10.4 mph - N/A   Clear
5:53 AM 46.0 °F 41.0 °F 36.0 °F 68% 30.19 in 10.0 mi NNW 10.4 mph - N/A   Clear
6:53 AM 45.0 °F 40.6 °F 35.1 °F 68% 30.22 in 10.0 mi North 8.1 mph - N/A   Clear
7:53 AM 45.0 °F 40.6 °F 35.1 °F 68% 30.24 in 10.0 mi NNW 8.1 mph - N/A   Clear
8:53 AM 48.0 °F - 34.0 °F 58% 30.24 in 10.0 mi North 10.4 mph - N/A   Clear
9:53 AM 51.8 °F - 32.0 °F 47% 30.26 in 10.0 mi North 9.2 mph - N/A   Partly Cloudy
10:53 AM 57.9 °F - 28.9 °F 33% 30.24 in 10.0 mi NNE 11.5 mph - N/A   Clear
11:53 AM 61.0 °F - 26.1 °F 26% 30.23 in 10.0 mi NNE 10.4 mph - N/A   Scattered Clouds
12:53 PM 63.0 °F - 21.9 °F 21% 30.20 in 10.0 mi NE 11.5 mph 16.1 mph N/A   Mostly Cloudy
1:53 PM 64.9 °F - 23.0 °F 20% 30.17 in 10.0 mi NE 12.7 mph 17.3 mph N/A   Scattered Clouds
2:53 PM 63.0 °F - 21.9 °F 21% 30.17 in 10.0 mi Calm Calm - N/A   Mostly Cloudy
3:53 PM 64.9 °F - 21.0 °F 19% 30.15 in 10.0 mi ESE 10.4 mph - N/A   Mostly Cloudy
4:53 PM 63.0 °F - 21.0 °F 20% 30.14 in 10.0 mi SE 9.2 mph - N/A   Mostly Cloudy
5:53 PM 62.1 °F - 25.0 °F 24% 30.14 in 10.0 mi East 6.9 mph - N/A   Overcast
6:53 PM 59.0 °F - 26.1 °F 28% 30.13 in 10.0 mi East 5.8 mph - N/A   Overcast
7:53 PM 57.9 °F - 28.0 °F 32% 30.14 in 10.0 mi East 4.6 mph - N/A   Overcast
8:53 PM 53.1 °F - 30.9 °F 43% 30.14 in 10.0 mi ENE 5.8 mph - N/A   Mostly Cloudy
9:53 PM 55.0 °F - 32.0 °F 42% 30.15 in 10.0 mi Calm Calm - N/A   Mostly Cloudy
10:53 PM 54.0 °F - 33.1 °F 45% 30.13 in 10.0 mi East 9.2 mph - N/A   Mostly Cloudy
11:53 PM 53.1 °F - 35.1 °F 50% 30.14 in 10.0 mi ESE 6.9 mph - N/A   Mostly Cloudy